Location: Unspecified
(0.0000°N, 0.0000°E)
Time: 20:29:04
(UTC+00:00)

Hubble Space Telescope - Pass Details

Date: 26 March 2023
Orbit: 527 x 530 km, 28.5° (Epoch: 30 March)

Event Time Altitude Azimuth Distance (km) Brightness Sun altitude
Exits shadow 05:24:49 - 318° (NW) 2,346 3.7 -10.3°
Reaches altitude 10° 05:26:28 10° 326° (NW) 1,750 3.1 -9.8°
Maximum altitude 05:30:05 32° 30° (NNE) 918 2.3 -8.9°
Drops below altitude 10° 05:33:43 10° 94° (E) 1,753 5.1 -8.0°
Sets 05:36:08 0° 104° (ESE) 2,642 6.1 -7.4°
